Wetterdaten: Woche 06.02.12 - 12.02.12 (KW6)
Datum Zeit Temperatur Luftfeuchte Luftdruck Niederschlag Windrichtung Sonnenschein Solar Wind
06.02.2012 00:00 -14,8 C 82 % 1032,2 hPa 0,0 l/m N-NO 0,00 h 0 W/m 3,1 km/h (1 Bft)
06.02.2012 01:00 -15,3 C 83 % 1032,4 hPa 0,0 l/m N-NO 0,00 h 0 W/m 3,6 km/h (1 Bft)
06.02.2012 02:00 -15,6 C 84 % 1032,7 hPa 0,0 l/m N-NO 0,00 h 0 W/m 2,1 km/h (1 Bft)
06.02.2012 03:00 -16,1 C 84 % 1032,5 hPa 0,0 l/m N 0,00 h 0 W/m 1,3 km/h (1 Bft)
06.02.2012 04:00 -16,7 C 85 % 1032,4 hPa 0,0 l/m N 0,00 h 0 W/m 2,1 km/h (1 Bft)
06.02.2012 05:00 -17,0 C 86 % 1032,4 hPa 0,0 l/m N-NO 0,00 h 0 W/m 3,3 km/h (1 Bft)
06.02.2012 06:00 -17,2 C 86 % 1032,5 hPa 0,0 l/m N 0,00 h 0 W/m 2,7 km/h (1 Bft)
06.02.2012 07:00 -17,3 C 87 % 1032,7 hPa 0,0 l/m N 0,08 h 8 W/m 1,6 km/h (1 Bft)
06.02.2012 08:00 -17,4 C 87 % 1033,1 hPa 0,0 l/m N-NO 0,00 h 28 W/m 4,0 km/h (1 Bft)
06.02.2012 09:00 -15,9 C 88 % 1033,3 hPa 0,0 l/m N-NO 0,83 h 163 W/m 7,1 km/h (2 Bft)
06.02.2012 10:00 -14,0 C 84 % 1033,5 hPa 0,0 l/m NO 0,92 h 289 W/m 6,3 km/h (2 Bft)
06.02.2012 11:00 -12,4 C 79 % 1033,4 hPa 0,0 l/m N-NO 1,00 h 405 W/m 9,0 km/h (2 Bft)
06.02.2012 12:00 -11,1 C 73 % 1032,9 hPa 0,0 l/m NO 1,00 h 445 W/m 11,4 km/h (2 Bft)
06.02.2012 13:00 -10,6 C 69 % 1032,5 hPa 0,0 l/m NO 0,67 h 323 W/m 12,0 km/h (2 Bft)
06.02.2012 14:00 -9,9 C 67 % 1032,2 hPa 0,0 l/m NO 0,92 h 363 W/m 12,5 km/h (3 Bft)
06.02.2012 15:00 -10,2 C 66 % 1032,2 hPa 0,0 l/m N-NO 0,67 h 174 W/m 12,0 km/h (2 Bft)
06.02.2012 16:00 -10,7 C 67 % 1032,5 hPa 0,0 l/m NO 0,83 h 90 W/m 12,3 km/h (3 Bft)
06.02.2012 17:00 -11,2 C 70 % 1033,1 hPa 0,0 l/m O-NO 0,25 h 17 W/m 11,0 km/h (2 Bft)
06.02.2012 18:00 -12,0 C 71 % 1033,4 hPa 0,0 l/m O-NO 0,00 h 0 W/m 6,2 km/h (2 Bft)
06.02.2012 19:00 -12,8 C 74 % 1033,2 hPa 0,0 l/m N 0,00 h 0 W/m 1,7 km/h (1 Bft)
06.02.2012 20:00 -13,9 C 77 % 1033,2 hPa 0,0 l/m N 0,00 h 0 W/m 1,2 km/h (1 Bft)
06.02.2012 21:00 -14,8 C 80 % 1033,3 hPa 0,0 l/m N 0,00 h 0 W/m 1,6 km/h (1 Bft)
06.02.2012 22:00 -14,6 C 83 % 1033,1 hPa 0,0 l/m NO 0,00 h 0 W/m 3,9 km/h (1 Bft)
06.02.2012 23:00 -15,2 C 81 % 1032,8 hPa 0,0 l/m NO 0,00 h 0 W/m 4,0 km/h (1 Bft)
07.02.2012 00:00 -15,9 C 83 % 1032,9 hPa 0,0 l/m N-NO 0,00 h 0 W/m 1,3 km/h (1 Bft)
07.02.2012 01:00 -16,2 C 84 % 1032,8 hPa 0,0 l/m N 0,00 h 0 W/m 1,2 km/h (1 Bft)
07.02.2012 02:00 -16,2 C 85 % 1032,9 hPa 0,0 l/m N 0,00 h 0 W/m 0,9 km/h (0 Bft)
07.02.2012 03:00 -16,0 C 86 % 1032,4 hPa 0,0 l/m N-NO 0,00 h 0 W/m 2,3 km/h (1 Bft)
07.02.2012 04:00 -15,2 C 86 % 1031,9 hPa 0,0 l/m N-NO 0,00 h 0 W/m 8,9 km/h (2 Bft)
07.02.2012 05:00 -14,5 C 83 % 1031,8 hPa 0,0 l/m NO 0,00 h 0 W/m 10,9 km/h (2 Bft)
07.02.2012 06:00 -14,3 C 83 % 1031,7 hPa 0,0 l/m N-NO 0,00 h 0 W/m 9,9 km/h (2 Bft)
07.02.2012 07:00 -14,2 C 85 % 1031,6 hPa 0,0 l/m N-NO 0,00 h 0 W/m 9,7 km/h (2 Bft)
07.02.2012 08:00 -14,1 C 86 % 1031,6 hPa 0,0 l/m N-NO 0,00 h 18 W/m 9,4 km/h (2 Bft)
07.02.2012 09:00 -13,9 C 87 % 1031,5 hPa 0,0 l/m O-NO 0,00 h 46 W/m 13,0 km/h (3 Bft)
07.02.2012 10:00 -13,6 C 87 % 1031,5 hPa 0,0 l/m NO 0,17 h 152 W/m 16,2 km/h (3 Bft)
07.02.2012 11:00 -12,8 C 83 % 1031,4 hPa 0,0 l/m NO 1,00 h 317 W/m 17,8 km/h (3 Bft)
07.02.2012 12:00 -12,2 C 81 % 1031,1 hPa 0,0 l/m O-NO 1,00 h 327 W/m 16,4 km/h (3 Bft)
07.02.2012 13:00 -11,3 C 78 % 1030,7 hPa 0,0 l/m O-NO 0,83 h 325 W/m 17,8 km/h (3 Bft)
07.02.2012 14:00 -11,3 C 77 % 1030,7 hPa 0,0 l/m NO 0,58 h 218 W/m 20,0 km/h (4 Bft)
07.02.2012 15:00 -11,6 C 79 % 1031,1 hPa 0,0 l/m O-NO 0,00 h 80 W/m 19,2 km/h (3 Bft)
07.02.2012 16:00 -11,6 C 80 % 1031,4 hPa 0,0 l/m NO 0,00 h 40 W/m 18,4 km/h (3 Bft)
07.02.2012 17:00 -11,8 C 81 % 1031,7 hPa 0,0 l/m NO 0,00 h 9 W/m 17,2 km/h (3 Bft)
07.02.2012 18:00 -11,7 C 83 % 1032,1 hPa 0,0 l/m O-NO 0,00 h 0 W/m 14,1 km/h (3 Bft)
07.02.2012 19:00 -11,5 C 85 % 1032,1 hPa 0,0 l/m N-NO 0,00 h 0 W/m 16,2 km/h (3 Bft)
07.02.2012 20:00 -11,4 C 86 % 1032,2 hPa 0,0 l/m NO 0,00 h 0 W/m 14,2 km/h (3 Bft)
07.02.2012 21:00 -11,1 C 86 % 1032,2 hPa 0,0 l/m O-NO 0,00 h 0 W/m 18,9 km/h (3 Bft)
07.02.2012 22:00 -11,1 C 86 % 1032,0 hPa 0,0 l/m O-NO 0,00 h 0 W/m 18,9 km/h (3 Bft)
07.02.2012 23:00 -11,1 C 86 % 1031,7 hPa 0,0 l/m NO 0,00 h 0 W/m 19,2 km/h (3 Bft)
08.02.2012 00:00 -11,1 C 86 % 1031,6 hPa 0,0 l/m O-NO 0,00 h 0 W/m 16,8 km/h (3 Bft)
08.02.2012 01:00 -11,1 C 86 % 1031,5 hPa 0,0 l/m O-NO 0,00 h 0 W/m 19,3 km/h (3 Bft)
08.02.2012 02:00 -11,1 C 85 % 1031,5 hPa 0,0 l/m O 0,00 h 0 W/m 24,7 km/h (4 Bft)
08.02.2012 03:00 -11,1 C 85 % 1031,3 hPa 0,0 l/m O-NO 0,00 h 0 W/m 23,5 km/h (4 Bft)
08.02.2012 04:00 -10,9 C 85 % 1031,1 hPa 0,0 l/m O-NO 0,00 h 0 W/m 24,0 km/h (4 Bft)
08.02.2012 05:00 -11,0 C 85 % 1031,3 hPa 0,0 l/m O-NO 0,00 h 0 W/m 19,4 km/h (3 Bft)
08.02.2012 06:00 -11,2 C 84 % 1031,5 hPa 0,0 l/m O-NO 0,00 h 0 W/m 19,3 km/h (3 Bft)
08.02.2012 07:00 -11,0 C 85 % 1031,8 hPa 0,0 l/m O-NO 0,00 h 5 W/m 22,3 km/h (4 Bft)
08.02.2012 08:00 -10,8 C 85 % 1032,3 hPa 0,0 l/m O-NO 0,00 h 22 W/m 19,8 km/h (4 Bft)
08.02.2012 09:00 -10,4 C 86 % 1032,8 hPa 0,0 l/m O-NO 0,00 h 63 W/m 15,1 km/h (3 Bft)
08.02.2012 10:00 -9,9 C 85 % 1033,0 hPa 0,0 l/m O-NO 0,00 h 110 W/m 21,6 km/h (4 Bft)
08.02.2012 11:00 -9,1 C 82 % 1033,1 hPa 0,0 l/m O 0,00 h 179 W/m 17,4 km/h (3 Bft)
08.02.2012 12:00 -8,7 C 81 % 1032,9 hPa 0,0 l/m O-NO 0,00 h 192 W/m 16,0 km/h (3 Bft)
08.02.2012 13:00 -8,4 C 79 % 1033,1 hPa 0,0 l/m NO 0,33 h 227 W/m 16,6 km/h (3 Bft)
08.02.2012 14:00 -8,2 C 79 % 1033,4 hPa 0,0 l/m NO 0,67 h 262 W/m 15,6 km/h (3 Bft)
08.02.2012 15:00 -7,7 C 77 % 1033,6 hPa 0,0 l/m O 1,00 h 191 W/m 14,8 km/h (3 Bft)
08.02.2012 16:00 -7,8 C 77 % 1033,8 hPa 0,0 l/m O 0,42 h 79 W/m 9,7 km/h (2 Bft)
08.02.2012 17:00 -8,2 C 78 % 1033,9 hPa 0,0 l/m O 0,08 h 14 W/m 4,0 km/h (1 Bft)
08.02.2012 18:00 -9,1 C 79 % 1033,9 hPa 0,0 l/m N 0,00 h 0 W/m 1,5 km/h (1 Bft)
08.02.2012 19:00 -10,6 C 80 % 1033,8 hPa 0,0 l/m N 0,00 h 0 W/m 1,7 km/h (1 Bft)
08.02.2012 20:00 -11,5 C 84 % 1033,8 hPa 0,0 l/m N 0,00 h 0 W/m 1,9 km/h (1 Bft)
08.02.2012 21:00 -12,1 C 86 % 1034,1 hPa 0,0 l/m O 0,00 h 0 W/m 1,7 km/h (1 Bft)
08.02.2012 22:00 -12,4 C 87 % 1034,2 hPa 0,0 l/m O 0,00 h 0 W/m 2,4 km/h (1 Bft)
08.02.2012 23:00 -12,6 C 88 % 1034,4 hPa 0,0 l/m N 0,00 h 0 W/m 2,0 km/h (1 Bft)
09.02.2012 00:00 -12,8 C 89 % 1034,6 hPa 0,0 l/m N 0,00 h 0 W/m 2,1 km/h (1 Bft)
09.02.2012 01:00 -13,0 C 89 % 1034,4 hPa 0,0 l/m N 0,00 h 0 W/m 0,1 km/h (0 Bft)
09.02.2012 02:00 -13,5 C 88 % 1034,3 hPa 0,0 l/m N 0,00 h 0 W/m 0,3 km/h (0 Bft)
09.02.2012 03:00 -14,1 C 88 % 1034,1 hPa 0,0 l/m N 0,00 h 0 W/m 0,0 km/h (0 Bft)
09.02.2012 04:00 -14,7 C 87 % 1033,9 hPa 0,0 l/m N 0,00 h 0 W/m 0,0 km/h (0 Bft)
09.02.2012 05:00 -15,4 C 87 % 1034,0 hPa 0,0 l/m N 0,00 h 0 W/m 0,5 km/h (0 Bft)
09.02.2012 06:00 -15,8 C 88 % 1033,8 hPa 0,0 l/m N 0,00 h 0 W/m 0,0 km/h (0 Bft)
09.02.2012 07:00 -16,1 C 88 % 1033,8 hPa 0,0 l/m N 0,00 h 6 W/m 0,0 km/h (0 Bft)
09.02.2012 08:00 -16,3 C 87 % 1033,8 hPa 0,0 l/m N 0,00 h 34 W/m 0,0 km/h (0 Bft)
09.02.2012 09:00 -14,3 C 89 % 1033,5 hPa 0,0 l/m N 0,08 h 128 W/m 1,2 km/h (1 Bft)
09.02.2012 10:00 -12,3 C 88 % 1033,3 hPa 0,0 l/m S-SW 0,00 h 145 W/m 0,9 km/h (0 Bft)
09.02.2012 11:00 -9,0 C 86 % 1032,7 hPa 0,0 l/m S-SW 0,08 h 182 W/m 6,5 km/h (2 Bft)
09.02.2012 12:00 -7,3 C 84 % 1032,2 hPa 0,0 l/m S-SW 0,00 h 144 W/m 8,2 km/h (2 Bft)
09.02.2012 13:00 -7,2 C 84 % 1031,5 hPa 0,0 l/m S-SW 0,00 h 98 W/m 9,3 km/h (2 Bft)
09.02.2012 14:00 -7,0 C 85 % 1030,8 hPa 0,0 l/m S-SW 0,00 h 69 W/m 9,3 km/h (2 Bft)
09.02.2012 15:00 -6,8 C 84 % 1030,7 hPa 0,0 l/m S-SW 0,00 h 59 W/m 5,0 km/h (1 Bft)
09.02.2012 16:00 -6,7 C 81 % 1030,8 hPa 0,0 l/m N-NO 0,33 h 66 W/m 7,5 km/h (2 Bft)
09.02.2012 17:00 -7,0 C 75 % 1030,8 hPa 0,0 l/m N 0,00 h 17 W/m 9,0 km/h (2 Bft)
09.02.2012 18:00 -7,9 C 83 % 1031,6 hPa 0,0 l/m N 0,00 h 0 W/m 11,5 km/h (2 Bft)
09.02.2012 19:00 -8,5 C 88 % 1032,2 hPa 0,2 l/m N-NO 0,00 h 0 W/m 9,3 km/h (2 Bft)
09.02.2012 20:00 -8,8 C 89 % 1032,8 hPa 0,0 l/m N-NO 0,00 h 0 W/m 5,3 km/h (1 Bft)
09.02.2012 21:00 -9,4 C 88 % 1033,4 hPa 0,2 l/m N-NO 0,00 h 0 W/m 2,9 km/h (1 Bft)
09.02.2012 22:00 -10,0 C 89 % 1033,8 hPa 0,0 l/m N-NO 0,00 h 0 W/m 5,3 km/h (1 Bft)
09.02.2012 23:00 -9,4 C 91 % 1034,1 hPa 0,0 l/m N-NO 0,00 h 0 W/m 3,9 km/h (1 Bft)
10.02.2012 00:00 -9,1 C 91 % 1034,2 hPa 0,0 l/m N 0,00 h 0 W/m 1,3 km/h (1 Bft)
10.02.2012 01:00 -9,1 C 91 % 1034,0 hPa 0,0 l/m N-NO 0,00 h 0 W/m 3,6 km/h (1 Bft)
10.02.2012 02:00 -9,1 C 91 % 1033,9 hPa 0,0 l/m N-NO 0,00 h 0 W/m 4,9 km/h (1 Bft)
10.02.2012 03:00 -8,8 C 91 % 1033,7 hPa 0,0 l/m O-NO 0,00 h 0 W/m 4,7 km/h (1 Bft)
10.02.2012 04:00 -8,8 C 91 % 1033,5 hPa 0,0 l/m O-NO 0,00 h 0 W/m 4,1 km/h (1 Bft)
10.02.2012 05:00 -8,8 C 91 % 1033,4 hPa 0,0 l/m NO 0,00 h 0 W/m 4,4 km/h (1 Bft)
10.02.2012 06:00 -8,8 C 91 % 1033,3 hPa 0,0 l/m NO 0,00 h 0 W/m 6,8 km/h (2 Bft)
10.02.2012 07:00 -8,9 C 91 % 1033,3 hPa 0,0 l/m NO 0,00 h 6 W/m 9,3 km/h (2 Bft)
10.02.2012 08:00 -8,9 C 92 % 1033,4 hPa 0,2 l/m O-NO 0,00 h 31 W/m 9,4 km/h (2 Bft)
10.02.2012 09:00 -9,0 C 90 % 1033,6 hPa 0,0 l/m O-NO 0,50 h 154 W/m 16,2 km/h (3 Bft)
10.02.2012 10:00 -9,1 C 89 % 1033,7 hPa 0,0 l/m O-NO 0,00 h 119 W/m 18,8 km/h (3 Bft)
10.02.2012 11:00 -8,9 C 88 % 1033,8 hPa 0,0 l/m O 0,00 h 133 W/m 16,2 km/h (3 Bft)
10.02.2012 12:00 -8,6 C 84 % 1033,2 hPa 0,0 l/m NO 0,00 h 132 W/m 14,8 km/h (3 Bft)
10.02.2012 13:00 -8,9 C 83 % 1033,1 hPa 0,0 l/m NO 0,00 h 127 W/m 19,4 km/h (3 Bft)
10.02.2012 14:00 -8,8 C 80 % 1032,9 hPa 0,0 l/m NO 0,00 h 144 W/m 16,6 km/h (3 Bft)
10.02.2012 15:00 -8,8 C 81 % 1032,6 hPa 0,0 l/m N-NO 0,00 h 105 W/m 17,6 km/h (3 Bft)
10.02.2012 16:00 -9,3 C 82 % 1032,4 hPa 0,0 l/m NO 0,00 h 27 W/m 18,1 km/h (3 Bft)
10.02.2012 17:00 -9,7 C 80 % 1032,5 hPa 0,0 l/m O-NO 0,00 h 8 W/m 18,1 km/h (3 Bft)
10.02.2012 18:00 -9,9 C 81 % 1032,5 hPa 0,0 l/m O-NO 0,00 h 0 W/m 16,5 km/h (3 Bft)
10.02.2012 19:00 -9,9 C 82 % 1032,4 hPa 0,0 l/m O-NO 0,00 h 0 W/m 18,6 km/h (3 Bft)
10.02.2012 20:00 -10,0 C 82 % 1032,1 hPa 0,0 l/m NO 0,00 h 0 W/m 14,0 km/h (3 Bft)
10.02.2012 21:00 -10,5 C 83 % 1031,7 hPa 0,0 l/m NO 0,00 h 0 W/m 12,4 km/h (3 Bft)
10.02.2012 22:00 -10,7 C 83 % 1031,5 hPa 0,0 l/m NO 0,00 h 0 W/m 9,8 km/h (2 Bft)
10.02.2012 23:00 -10,8 C 84 % 1031,2 hPa 0,0 l/m NO 0,00 h 0 W/m 10,9 km/h (2 Bft)
11.02.2012 00:00 -10,9 C 85 % 1030,4 hPa 0,0 l/m O-NO 0,00 h 0 W/m 11,7 km/h (2 Bft)
11.02.2012 01:00 -11,1 C 85 % 1029,7 hPa 0,0 l/m NO 0,00 h 0 W/m 17,4 km/h (3 Bft)
11.02.2012 02:00 -11,0 C 84 % 1029,4 hPa 0,0 l/m NO 0,00 h 0 W/m 14,2 km/h (3 Bft)
11.02.2012 03:00 -11,5 C 86 % 1028,9 hPa 0,0 l/m NO 0,00 h 0 W/m 15,3 km/h (3 Bft)
11.02.2012 04:00 -11,7 C 87 % 1028,7 hPa 0,0 l/m N-NO 0,00 h 0 W/m 15,7 km/h (3 Bft)
11.02.2012 05:00 -11,6 C 86 % 1028,4 hPa 0,0 l/m NO 0,00 h 0 W/m 18,4 km/h (3 Bft)
11.02.2012 06:00 -11,6 C 86 % 1028,3 hPa 0,0 l/m NO 0,00 h 0 W/m 20,5 km/h (4 Bft)
11.02.2012 07:00 -11,6 C 86 % 1028,6 hPa 0,0 l/m O-NO 0,00 h 7 W/m 19,8 km/h (4 Bft)
11.02.2012 08:00 -11,7 C 86 % 1028,6 hPa 0,0 l/m NO 0,00 h 30 W/m 20,1 km/h (4 Bft)
11.02.2012 09:00 -11,7 C 87 % 1028,6 hPa 0,0 l/m NO 0,00 h 110 W/m 17,8 km/h (3 Bft)
11.02.2012 10:00 -11,0 C 82 % 1028,3 hPa 0,0 l/m O-NO 0,92 h 312 W/m 17,6 km/h (3 Bft)
11.02.2012 11:00 -10,1 C 77 % 1028,1 hPa 0,0 l/m O-NO 1,00 h 432 W/m 17,2 km/h (3 Bft)
11.02.2012 12:00 -9,4 C 74 % 1028,0 hPa 0,0 l/m NO 0,83 h 435 W/m 18,6 km/h (3 Bft)
11.02.2012 13:00 -9,3 C 76 % 1027,6 hPa 0,0 l/m NO 0,42 h 306 W/m 18,1 km/h (3 Bft)
11.02.2012 14:00 -9,6 C 77 % 1027,5 hPa 0,0 l/m O-NO 0,33 h 157 W/m 22,1 km/h (4 Bft)
11.02.2012 15:00 -9,9 C 78 % 1027,9 hPa 0,0 l/m NO 0,00 h 66 W/m 20,1 km/h (4 Bft)
11.02.2012 16:00 -9,9 C 79 % 1028,2 hPa 0,0 l/m NO 0,00 h 29 W/m 19,6 km/h (3 Bft)
11.02.2012 17:00 -9,8 C 78 % 1028,7 hPa 0,0 l/m O-NO 0,00 h 9 W/m 13,8 km/h (3 Bft)
11.02.2012 18:00 -10,5 C 78 % 1029,4 hPa 0,0 l/m NO 0,00 h 0 W/m 9,5 km/h (2 Bft)
11.02.2012 19:00 -11,2 C 80 % 1029,6 hPa 0,0 l/m NO 0,00 h 0 W/m 8,6 km/h (2 Bft)
11.02.2012 20:00 -11,9 C 80 % 1029,7 hPa 0,0 l/m N-NO 0,00 h 0 W/m 5,5 km/h (1 Bft)
11.02.2012 21:00 -12,9 C 82 % 1030,0 hPa 0,0 l/m N 0,00 h 0 W/m 5,5 km/h (1 Bft)
11.02.2012 22:00 -13,5 C 84 % 1030,3 hPa 0,0 l/m N-NO 0,00 h 0 W/m 8,0 km/h (2 Bft)
11.02.2012 23:00 -13,4 C 84 % 1030,3 hPa 0,0 l/m N-NO 0,00 h 0 W/m 6,5 km/h (2 Bft)
12.02.2012 00:00 -13,7 C 84 % 1030,4 hPa 0,0 l/m N-NO 0,00 h 0 W/m 3,5 km/h (1 Bft)
12.02.2012 01:00 -14,4 C 84 % 1030,0 hPa 0,0 l/m N 0,00 h 0 W/m 2,7 km/h (1 Bft)
12.02.2012 02:00 -14,8 C 85 % 1030,1 hPa 0,0 l/m N-NO 0,00 h 0 W/m 3,6 km/h (1 Bft)
12.02.2012 03:00 -15,1 C 85 % 1029,7 hPa 0,0 l/m N-NO 0,00 h 0 W/m 6,5 km/h (2 Bft)
12.02.2012 04:00 -15,4 C 86 % 1029,8 hPa 0,0 l/m N-NW 0,00 h 0 W/m 6,5 km/h (2 Bft)
12.02.2012 05:00 -15,7 C 87 % 1029,9 hPa 0,0 l/m N 0,00 h 0 W/m 7,1 km/h (2 Bft)
12.02.2012 06:00 -15,9 C 87 % 1030,2 hPa 0,0 l/m N 0,00 h 0 W/m 0,9 km/h (0 Bft)
12.02.2012 07:00 -16,3 C 87 % 1030,6 hPa 0,0 l/m N 0,08 h 10 W/m 2,1 km/h (1 Bft)
12.02.2012 08:00 -16,0 C 89 % 1030,9 hPa 0,0 l/m N-NO 0,00 h 43 W/m 3,3 km/h (1 Bft)
12.02.2012 09:00 -14,7 C 87 % 1031,1 hPa 0,0 l/m N-NO 0,58 h 171 W/m 8,4 km/h (2 Bft)
12.02.2012 10:00 -13,1 C 84 % 1031,3 hPa 0,0 l/m O-NO 0,92 h 295 W/m 9,4 km/h (2 Bft)
12.02.2012 11:00 -11,5 C 80 % 1031,3 hPa 0,0 l/m O-NO 1,00 h 407 W/m 12,8 km/h (3 Bft)
12.02.2012 12:00 -10,0 C 75 % 1030,8 hPa 0,0 l/m N-NO 1,00 h 464 W/m 12,0 km/h (2 Bft)
12.02.2012 13:00 -8,5 C 69 % 1030,1 hPa 0,0 l/m N-NO 1,00 h 456 W/m 12,4 km/h (3 Bft)
12.02.2012 14:00 -7,6 C 66 % 1029,6 hPa 0,0 l/m NO 1,00 h 387 W/m 12,5 km/h (3 Bft)
12.02.2012 15:00 -7,2 C 63 % 1029,2 hPa 0,0 l/m O-NO 1,00 h 264 W/m 10,7 km/h (2 Bft)
12.02.2012 16:00 -7,4 C 63 % 1029,2 hPa 0,0 l/m O-NO 1,00 h 116 W/m 11,2 km/h (2 Bft)
12.02.2012 17:00 -8,1 C 65 % 1029,6 hPa 0,0 l/m NO 0,08 h 13 W/m 4,4 km/h (1 Bft)
12.02.2012 18:00 -9,2 C 68 % 1029,7 hPa 0,0 l/m N 0,00 h 0 W/m 0,7 km/h (0 Bft)
12.02.2012 19:00 -11,0 C 72 % 1029,7 hPa 0,0 l/m N 0,00 h 0 W/m 0,0 km/h (0 Bft)
12.02.2012 20:00 -12,5 C 75 % 1029,9 hPa 0,0 l/m N 0,00 h 0 W/m 0,1 km/h (0 Bft)
12.02.2012 21:00 -13,3 C 79 % 1029,9 hPa 0,0 l/m N 0,00 h 0 W/m 0,4 km/h (0 Bft)
12.02.2012 22:00 -14,1 C 80 % 1029,8 hPa 0,0 l/m N 0,00 h 0 W/m 0,0 km/h (0 Bft)
12.02.2012 23:00 -15,0 C 81 % 1029,7 hPa 0,0 l/m N 0,00 h 0 W/m 0,0 km/h (0 Bft)
Min-Datum _ 06.02.12 12.02.12 11.02.12 - - - - 06.02.12
_ Min-Zeit 08:05 14:55 13:45 - - - - 00:20
Minimum _ -17,5 C 63 % 1027,4 hPa - - - - 0,0 km/h (0 Bft)
Max-Datum _ 09.02.12 07.02.12 09.02.12 09.02.12 - 06.02.12 11.02.12 08.02.12
_ Max-Zeit 16:40 00:15 00:20 19:35 - 07:55 12:45 02:20
Maximum _ -6,6 C 92 % 1034,9 hPa 0,2 l/m - 0,08 h 540 W/m 37,0 km/h
O (5 Bft)
Durchschnitt _ -11,6 C 83 % 1031,8 hPa #0,6 l/m NO #25:25 h 153 W/m 9,9 km/h (2 Bft)